PAGEOS 1 DEB, 9468

Orbit data source: Space-Track

PAGEOS 1 DEB, 9468 is space debris in LEO originally from a launch on Fri, 24 Jun 1966 UTC launched from the Air Force Western Test Range (AFWTR). Debris objects in space refer to the collection of defunct objects orbiting the Earth. Examples of debris include non-operational satellites, rocket bodies, and fragments generated from explosions, collisions, or faulty payload assembly.

Loading next visibility...
Identifier
9468, 1966-056AH
Orbit
LEO
Country
Flag of USUS
Related business
Manufacturer
Unknown
Mission
Spacecraft
Bus & Motor
Unknown
Mass
Unknown
Launch date (UTC)
1966-06-24 (60 years ago)
Launch vehicle
Unknown
Launch site
Air Force Western Test Range (AFWTR)
Object type
Payload
Rocket body
Debris
Shape & HBR
Unknown shape, 0.2 m
Radar Cross Section
Medium (>0.1 m² and <1 m²)

Expand to show TLE details & history
Last TLE update: 4 weeks ago

TLE from 4 weeks ago
0 PAGEOS 1 DEB
1 09468U 66056AH  26115.54800722  .00000463  00000-0  32339+0 0  9995
2 09468  85.5330 113.8762 0709705 344.4178  13.5782  8.04527860 61553
Epoch: 2026-04-25T13:09Z
TLE epoch observation values (Epoch: 2026-04-25T13:09:07.823Z)
Latitude
0.00002°
Longitude
63.0288°
Altitude
3,421.964 km
Speed
6.594 km/s
True Right ascension
07h 35m 30s
True Declination
0° 00' 00"
Sunlit
Object was in daylight at epoch
Visualization orbit readout
Latitude
Unknown
Longitude
Unknown
Altitude
Unknown
Speed
Unknown
Apparent Right ascension
Unknown
Apparent Declination
Unknown
Sunlit
N/A
Visualization observer readout
Local Sidereal Time
19:18:43
Azimuth
Unknown
Elevation
Unknown
Doppler factor
Unknown
Orbital elements
Apogee altitude
4,886.921 km
Perigee altitude
3,393.907 km
Semi-major axis
10,518.551 km
Eccentricity
0.07097
Inclination
85.533°
RAAN
113.8762°
Arg. of periapsis
344.4178°
True anomaly
15.66647°
Mean anomaly
13.5782°
Eccentric anomaly
14.60343°
Mean motion
2.01191 °/min
Orbital period
178.93 mins
BSTAR
0.32339
Loading maneuver chart data...
Computing Atmospheric mass density...

Documentation

Showing up to 5 results
|